User: anonymous   Login
Location: Unspecified
(0.0000°N, 0.0000°E)
Time: 13:00:35
(UTC+00:00)
Language:

Tiros 10 - Orbit

View from above orbital plane
View from above orbital plane
View from above satellite
View from above satellite

Ground track
Ground track

The orbit data is extracted from the following two-line orbital elements,

1 01430U 65051A   15238.56388148  .00000052  00000-0  28777-4 0  9999
2 01430 098.0792 056.8000 0057913 095.8718 264.9077 14.40084038628022
Epoch (UTC): 26 August 2015 13:31:59
Eccentricity: 0.0057913
inclination: 98.0792°
perigee height: 717 km
apogee height: 799 km
right ascension of ascending node: 56.8000°
argument of perigee: 95.8718°
revolutions per day: 14.40084038
mean anomaly at epoch: 264.9077°
orbit number at epoch: 62802

The dashed part of the orbit path shows where the satellite is in the earth's shadow,  

DLR